Hourly Data Report for March 11, 2020

All times are specified in Local Standard Time (LST). Add 1 hour to adjust for Daylight Saving Time where and when it is observed.

OTTAWA INTL A
ONTARIO
Current Station Operator: NAVCAN

45°19'00.000" N
75°40'00.000" W
114.90 m
6106001
71628
YOW

Download Data

Hourly Data (March 2020)
Hourly Data Report for March 11, 2020
TIME Temp Definition
°C
Dew Point Definition
°C
Rel Hum Definition
%
Wind Dir Definition
10's deg

Wind Spd Definition
km/h
Visibility Definition
km
Stn Press Definition
kPa
Hmdx Definition


Wind Chill Definition


Weather Definition


00:00 -3.4 -8.4 68 33 28 24.1 100.74   -11 LegendNANA
01:00 -4.1 -9.0 69 34 25 24.1 100.82   -11 Mostly Cloudy
02:00 -4.9 -9.8 69 34 19 24.1 100.83   -11 LegendNANA
03:00 -5.2 -9.8 70 32 16 24.1 100.86   -11 LegendNANA
04:00 -5.8 -10.7 68 34 11 24.1 100.88   -11 Clear
05:00 -6.0 -10.4 71 32 9 24.1 100.89   -10 LegendNANA
06:00 -6.8 -10.1 78 25 7 24.1 100.97   -10 LegendNANA
07:00 -6.1 -10.4 72 30 7 24.1 100.99   -9 Clear
08:00 -5.6 -10.3 69 30 9 24.1 101.07   -10 LegendNANA
09:00 -5.1 -12.1 58 30 6 24.1 101.09   -8 LegendNANA
10:00 -4.6 -13.0 52 19 4 24.1 101.06   -6 Mostly Cloudy
11:00 -3.8 -13.2 48 32 4 24.1 101.02   -5 LegendNANA
12:00 -3.4 -13.5 46 21 4 24.1 100.97   -5 LegendNANA
13:00 -3.0 -12.9 47 36 1 24.1 100.89   -3 Mostly Cloudy
14:00 -2.5 -11.7 49 22 8 24.1 100.84   -6 LegendNANA
15:00 -1.9 -11.9 47 36 2 24.1 100.76   -3 LegendNANA
16:00 -1.7 -11.3 48 36 3 24.1 100.75   -3 Mostly Cloudy
17:00 -1.7 -11.2 48 21 4 24.1 100.76   -3 LegendNANA
18:00 -2.3 -9.4 59 16 15 24.1 100.78   -7 LegendNANA
19:00 -2.6 -9.2 61 16 8 24.1 100.79   -6 Mostly Cloudy
20:00 -2.8 -8.2 67 13 9 24.1 100.78   -6 LegendNANA
21:00 -2.8 -8.2 67 9 8 24.1 100.74   -6 LegendNANA
22:00 -3.0 -7.9 69 36 3 24.1 100.74   -4 Mostly Cloudy
23:00 -2.7 -8.4 65 5 5 24.1 100.71   -5 LegendNANA

Notes on Data Quality.

Legend

  • E = Estimated
  • M = Missing
  • NA = Not Available*
  • [empty] = Indicates an unobserved value
Date modified: